PulseSat

PulseSat

COSMOS 2456 (730)

Last updated on Jan. 18, 2019, 3 a.m. UTC

1 36111U 09070A   19017.68980135  .00000061  00000-0  00000+0 0  9992
2 36111  64.1938 163.7702 0002978 348.3280  15.4703  2.13102871 70771
UTC
Height (km)
Latitude
Longitude
Inclination
Orbital Period

Next 30 passes for location: Hong Kong

Rise time Rise Azimuth (degrees) Set time Set Azimuth (degrees) Duration Max altitude (degrees)

No matching passes for this satellites

PulseSat

PulseSat is the new satellites software and hardware trackering solution by Pulsely.
Satellite Two Line Element Set source: US Air Force Space Command

Download PulseSat for iOS
© 2017 Pulsely Limited